Regional Weather Roundup
Issued by NWS

Home | Current Version | Previous Version | Text Only | Print | Product List | Glossary Off
Versions: 1 2 3 4 5 6 7 8 9 10 11 12 13 14 15 16 17 18 19 20 21 22 23 24 25 26 27 28 29 30 31 32 33 34 35 36 37 38 39 40 41 42 43 44 45 46 47 48 49 50

000
ASUS45 KSLC 201710
RWRUT

UTAH REGIONAL WEATHER ROUNDUP
NATIONAL WEATHER SERVICE SALT LAKE CITY UT
1100 AM MDT WED SEP 20 2017

UTZ001>011-023>025-201800-

NORTHERN UTAH

CITY           SKY/WX    TMP DP  RH WIND       PRES   REMARKS
BRIGHAM CITY   SUNNY     56  36  46 CALM      29.92F
HILL AFB       SUNNY     58  36  44 SE6       29.92F
LOGAN          CLOUDY    52  40  63 CALM      29.91S
OGDEN          SUNNY     60  34  37 S13       29.91S
SALT LAKE CITY PTSUNNY   62  40  44 SE13      29.90F
TOOELE VALLEY  CLOUDY    64  34  32 S15G21    29.90F
WENDOVER       SUNNY     56  29  35 E7        29.90F
HEBER CITY     SUNNY     46  34  61 CALM      29.96F
WEST JORDAN    MOSUNNY   60  42  51 S16       29.92F

$$

UTZ011>015-024>027-201800-

CENTRAL/NORTHEAST UTAH

CITY           SKY/WX    TMP DP  RH WIND       PRES   REMARKS
PROVO AIRPORT  SUNNY     56  41  57 VRB5      29.95F
MOAB/CANYONLAN SUNNY     70  36  28 CALM      29.92F
DELTA          SUNNY     59  34  38 CALM      29.94F
PRICE          SUNNY     60  32  34 VRB3      29.99R
ROOSEVELT      SUNNY     57  34  41 CALM      30.02F
VERNAL         SUNNY     58  37  45 E5        29.99F

$$

UTZ013>016-019>022-027-201800-

SOUTHERN UTAH

CITY           SKY/WX    TMP DP  RH WIND       PRES   REMARKS
BRYCE CANYON   SUNNY     60  36  40 S13       30.10S
CEDAR CITY     SUNNY     70  38  31 SW17      29.96F
MILFORD        SUNNY     65  39  38 S10       29.94F
ST GEORGE      SUNNY     75  41  29 NW3       29.88F
BLANDING         N/A     68  33  26 S13       30.12F

$$

REGIONAL REPORTS     COLORADO/ARIZONA

CITY           SKY/WX    TMP DP  RH WIND       PRES   REMARKS
CRAIG, CO      SUNNY     55  36  48 E12       30.02F
GRAND JUNCTION SUNNY     68  36  30 CALM      29.95F
RIFLE, CO      SUNNY     63  37  38 VRB5      30.00F
MONTROSE, CO   SUNNY     72  33  24 W16       30.01F
CORTEZ, CO     SUNNY     70  32  24 SW14      30.08S
PAGE, AZ       SUNNY     75  38  26 N3        29.95S
GRAND CANYON   SUNNY     66  34  30 SW16G25   30.13S
KINGMAN, AZ    SUNNY     80  37  21 CALM      29.92F
FLAGSTAFF, AZ  SUNNY     62  34  35 SW17      30.17S

$$

REGIONAL REPORTS    NEVADA/IDAHO/WYOMING

CITY           SKY/WX    TMP DP  RH WIND       PRES   REMARKS
LAS VEGAS, NV  SUNNY     79  40  24 E3        29.82S
ELY, NY        SUNNY     61  27  27 S10       29.96F
ELKO, NV       PTSUNNY   61  29  29 SW12      29.88F
POCATELLO, ID  CLOUDY    62  32  32 S21G28    29.82F
BURLEY, ID     MOSUNNY   58  31  35 S17       29.79F
FORT BRIDGER,    N/A     53  27  36 W12       30.02F
EVANSTON, WY   SUNNY     50  30  46 SW15      29.99F
ROCK SPRINGS,  SUNNY     50  25  37 SW15      30.00F
KEMMERER, WY     N/A     48  27  43 SW21G26   29.99F

$$



USA.gov is the U.S. government's official web portal to all federal, state and local government web resources and services.